This is the latest recevied weather packets stored in our database for station/object NR6G-12. If no packets are shown the sender has not sent any weather packets the latest 10 day(s).
| Time | Temp. | Humidity | Pressure | Rain* | Wind** | Luminosity | Snow |
|---|---|---|---|---|---|---|---|
| 1777759740 | 21.11° C | 51% | 1014.8 hPa | 0 mm | - | - | - |
| 1777759380 | 20.56° C | 53% | 1014.9 hPa | 0 mm | - | - | - |
| 1777759020 | 20.56° C | 50% | 1015 hPa | 0 mm | - | - | - |
| 1777758660 | 20.56° C | 52% | 1015.1 hPa | 0 mm | - | - | - |
| 1777758300 | 20.56° C | 51% | 1015.1 hPa | 0 mm | - | - | - |
| 1777757940 | 21.11° C | 49% | 1015.3 hPa | 0 mm | - | - | - |
| 1777757580 | 20.56° C | 49% | 1015.3 hPa | 0 mm | - | - | - |
| 1777757220 | 20.56° C | 52% | 1015.4 hPa | 0 mm | - | - | - |
| 1777756860 | 20.56° C | 48% | 1015.4 hPa | 0 mm | - | - | - |
| 1777756500 | 20.56° C | 48% | 1014.8 hPa | 0 mm | - | - | - |
| 1777756140 | 20.56° C | 48% | 1014.8 hPa | 0 mm | - | - | - |
| 1777755780 | 20° C | 54% | 1015 hPa | 0 mm | - | - | - |
| 1777755420 | 20° C | 50% | 1015.1 hPa | 0 mm | - | - | - |
| 1777755060 | 20° C | 48% | 1015.1 hPa | 0 mm | - | - | - |
| 1777754340 | 20° C | 48% | 1015.1 hPa | 0 mm | - | - | - |
| 1777753980 | 20° C | 50% | 1015.3 hPa | 0 mm | - | - | - |
| 1777753620 | 20° C | 53% | 1015.3 hPa | 0 mm | - | - | - |
| 1777753260 | 20° C | 50% | 1015.3 hPa | 0 mm | - | - | - |
| 1777752900 | 19.44° C | 47% | 1015.3 hPa | 0 mm | - | - | - |
| 1777752540 | 19.44° C | 49% | 1015.4 hPa | 0 mm | - | - | - |
| 1777752180 | 19.44° C | 53% | 1015.4 hPa | 0 mm | - | - | - |
| 1777751820 | 19.44° C | 52% | 1015.4 hPa | 0 mm | - | - | - |
| 1777751460 | 19.44° C | 54% | 1015.5 hPa | 0 mm | - | - | - |
| 1777751100 | 18.89° C | 48% | 1015.4 hPa | 0 mm | - | - | - |
| 1777750740 | 18.89° C | 52% | 1015.4 hPa | 0 mm | - | - | - |
* Rain latest hour (hover to see other rain measurements)
** Current wind speed in m/s (hover to see current wind gust speed)